Radiation Dose at Monitoring Post of Fukushima Daini Nuclear Power Station
Date,Time,MP-1(microSv/h),MP-2(microSv/h),MP-3(microSv/h),MP-4(microSv/h),MP-5(microSv/h),MP-6(microSv/h),MP-7(microSv/h),Wind Direction,Wind Velocity(m/s),Rain
2022/02/10,00:00,0.163,0.148,0.236,0.227,0.228,0.129,0.080,north,4.1,No
2022/02/10,00:10,0.161,0.148,0.235,0.227,0.227,0.128,0.081,north-northwest,4.4,No
2022/02/10,00:20,0.162,0.148,0.234,0.226,0.226,0.128,0.081,north-northwest,4.0,No
2022/02/10,00:30,0.162,0.148,0.234,0.227,0.226,0.128,0.081,north-northwest,3.5,No
2022/02/10,00:40,0.162,0.148,0.235,0.225,0.227,0.128,0.081,north-northwest,3.3,No
2022/02/10,00:50,0.161,0.148,0.233,0.227,0.227,0.127,0.081,north-northwest,4.1,No
2022/02/10,01:00,0.163,0.147,0.235,0.227,0.226,0.128,0.080,north-northwest,4.6,No
2022/02/10,01:10,0.162,0.147,0.235,0.226,0.226,0.128,0.081,north-northwest,4.1,No
2022/02/10,01:20,0.162,0.149,0.233,0.226,0.226,0.128,0.081,north-northwest,4.1,No
2022/02/10,01:30,0.162,0.149,0.234,0.227,0.225,0.128,0.080,north,4.6,No
2022/02/10,01:40,0.161,0.149,0.234,0.226,0.226,0.129,0.081,north-northwest,4.3,No
2022/02/10,01:50,0.162,0.148,0.234,0.226,0.227,0.128,0.081,north-northwest,4.3,No
2022/02/10,02:00,0.161,0.148,0.235,0.226,0.227,0.127,0.081,north-northwest,4.4,No
2022/02/10,02:10,0.161,0.148,0.234,0.227,0.226,0.129,0.081,north-northwest,4.1,No
2022/02/10,02:20,0.162,0.147,0.234,0.227,0.227,0.128,0.081,north-northwest,4.4,No
2022/02/10,02:30,0.161,0.148,0.235,0.226,0.226,0.128,0.080,northwest,4.9,No
2022/02/10,02:40,0.162,0.148,0.235,0.226,0.226,0.127,0.081,north-northwest,4.7,No
2022/02/10,02:50,0.162,0.149,0.235,0.226,0.226,0.127,0.081,north-northwest,4.8,No
2022/02/10,03:00,0.162,0.148,0.235,0.227,0.228,0.127,0.081,north,5.1,No
2022/02/10,03:10,0.161,0.148,0.234,0.227,0.226,0.128,0.081,north,4.9,No
2022/02/10,03:20,0.161,0.148,0.235,0.227,0.227,0.128,0.081,north-northwest,5.0,No
2022/02/10,03:30,0.162,0.148,0.234,0.225,0.226,0.128,0.082,north,4.3,No
2022/02/10,03:40,0.161,0.148,0.234,0.226,0.227,0.128,0.081,north-northwest,5.1,No
2022/02/10,03:50,0.163,0.147,0.234,0.227,0.228,0.128,0.081,north-northwest,5.4,No
2022/02/10,04:00,0.162,0.148,0.235,0.227,0.228,0.129,0.081,north,4.6,No
2022/02/10,04:10,0.162,0.148,0.235,0.225,0.228,0.128,0.081,north,4.4,No
2022/02/10,04:20,0.163,0.148,0.234,0.226,0.226,0.128,0.081,north,2.7,No
2022/02/10,04:30,0.161,0.147,0.234,0.226,0.226,0.129,0.081,north,3.5,No
2022/02/10,04:40,0.162,0.149,0.234,0.226,0.227,0.128,0.081,north,4.0,No
2022/02/10,04:50,0.162,0.147,0.235,0.227,0.227,0.128,0.081,north,3.5,No
2022/02/10,05:00,0.163,0.148,0.234,0.226,0.226,0.128,0.081,north-northwest,4.3,No
2022/02/10,05:10,0.161,0.148,0.235,0.227,0.227,0.128,0.081,north-northwest,4.4,No
2022/02/10,05:20,0.162,0.148,0.234,0.226,0.226,0.128,0.081,north,4.6,No
2022/02/10,05:30,0.162,0.149,0.235,0.227,0.227,0.129,0.082,north-northwest,4.9,No
2022/02/10,05:40,0.162,0.149,0.236,0.226,0.226,0.127,0.081,north-northwest,4.9,No
2022/02/10,05:50,0.162,0.149,0.234,0.226,0.227,0.128,0.082,north,5.7,No
2022/02/10,06:00,0.162,0.149,0.234,0.226,0.226,0.128,0.082,north,6.5,No
2022/02/10,06:10,0.163,0.148,0.234,0.227,0.227,0.129,0.081,north-northwest,5.9,No
2022/02/10,06:20,0.163,0.148,0.235,0.227,0.226,0.129,0.082,north-northwest,5.9,No
2022/02/10,06:30,0.163,0.148,0.235,0.227,0.227,0.129,0.081,north-northwest,5.2,No
2022/02/10,06:40,0.163,0.149,0.235,0.226,0.227,0.128,0.082,north-northwest,5.1,No
2022/02/10,06:50,0.161,0.148,0.235,0.227,0.227,0.128,0.081,north-northwest,6.0,No
2022/02/10,07:00,0.162,0.149,0.235,0.227,0.227,0.128,0.081,northwest,5.9,No
2022/02/10,07:10,0.162,0.148,0.235,0.227,0.227,0.128,0.081,northwest,5.9,No
2022/02/10,07:20,0.163,0.148,0.235,0.226,0.227,0.129,0.082,northwest,5.5,No
2022/02/10,07:30,0.161,0.148,0.235,0.226,0.226,0.128,0.081,north-northwest,5.0,No
2022/02/10,07:40,0.161,0.147,0.235,0.226,0.227,0.128,0.080,north-northwest,5.1,No
2022/02/10,07:50,0.162,0.148,0.235,0.226,0.226,0.128,0.081,north-northwest,5.5,No
2022/02/10,08:00,0.162,0.148,0.235,0.227,0.226,0.129,0.081,north-northwest,4.8,No
2022/02/10,08:10,0.162,0.148,0.236,0.225,0.227,0.127,0.081,north-northwest,4.3,No
2022/02/10,08:20,0.162,0.148,0.234,0.226,0.226,0.128,0.081,north-northwest,3.7,No
2022/02/10,08:30,0.162,0.147,0.235,0.227,0.225,0.128,0.081,north-northwest,3.7,No
2022/02/10,08:40,0.161,0.147,0.234,0.227,0.227,0.127,0.081,north-northwest,3.5,No
2022/02/10,08:50,0.161,0.149,0.234,0.224,0.227,0.128,0.080,north-northwest,4.1,No
2022/02/10,09:00,0.161,0.148,0.233,0.227,0.226,0.127,0.081,north-northwest,3.5,No
2022/02/10,09:10,0.161,0.148,0.233,0.226,0.227,0.129,0.081,north-northwest,2.4,No
2022/02/10,09:20,0.161,0.147,0.234,0.226,0.226,0.127,0.081,north-northwest,3.3,No
2022/02/10,09:30,0.162,0.148,0.234,0.225,0.225,0.128,0.082,north-northwest,3.5,No
2022/02/10,09:40,0.161,0.148,0.234,0.226,0.227,0.127,0.081,north-northwest,3.2,No
2022/02/10,09:50,0.162,0.148,0.234,0.226,0.227,0.128,0.081,north-northwest,2.7,No
2022/02/10,10:00,0.162,0.148,0.234,0.226,0.227,0.128,0.082,north,2.1,No
2022/02/10,10:10,0.162,0.147,0.235,0.227,0.227,0.128,0.081,north-northwest,2.7,No
2022/02/10,10:20,0.162,0.148,0.237,0.227,0.226,0.128,0.081,north,3.3,No
2022/02/10,10:30,0.161,0.148,0.235,0.225,0.227,0.128,0.080,north-northwest,3.0,No
2022/02/10,10:40,0.162,0.148,0.234,0.227,0.228,0.128,0.082,north-northwest,3.3,Yes
2022/02/10,10:50,0.162,0.148,0.233,0.226,0.227,0.129,0.081,north,3.3,Yes
2022/02/10,11:00,0.161,0.148,0.235,0.227,0.228,0.129,0.081,north-northwest,3.5,Yes
2022/02/10,11:10,0.163,0.149,0.235,0.227,0.226,0.129,0.082,north,2.7,Yes
2022/02/10,11:20,0.164,0.150,0.236,0.227,0.226,0.130,0.083,north,3.8,Yes
2022/02/10,11:30,0.163,0.149,0.236,0.227,0.228,0.129,0.083,north-northwest,3.2,Yes
2022/02/10,11:40,0.162,0.149,0.235,0.226,0.228,0.129,0.082,north-northwest,3.3,Yes
2022/02/10,11:50,0.163,0.149,0.236,0.227,0.228,0.129,0.081,north-northwest,3.5,Yes
2022/02/10,12:00,0.163,0.148,0.237,0.227,0.227,0.129,0.082,north-northwest,4.1,Yes
2022/02/10,12:10,0.162,0.150,0.236,0.228,0.227,0.130,0.082,north-northwest,4.9,Yes
2022/02/10,12:20,0.162,0.150,0.235,0.227,0.227,0.129,0.082,north-northwest,4.8,Yes
2022/02/10,12:30,0.162,0.147,0.235,0.227,0.227,0.129,0.082,north-northwest,4.9,Yes
2022/02/10,12:40,0.163,0.149,0.236,0.226,0.227,0.129,0.083,north-northwest,4.8,Yes
2022/02/10,12:50,0.163,0.149,0.236,0.227,0.227,0.130,0.083,north-northwest,5.0,Yes
2022/02/10,13:00,0.163,0.151,0.236,0.228,0.228,0.130,0.083,north-northwest,4.9,Yes
2022/02/10,13:10,0.163,0.150,0.236,0.228,0.228,0.130,0.083,north-northwest,5.0,Yes
2022/02/10,13:20,0.163,0.149,0.236,0.228,0.228,0.131,0.083,north-northwest,5.8,Yes
2022/02/10,13:30,0.164,0.150,0.236,0.227,0.227,0.130,0.083,north-northwest,5.2,Yes
2022/02/10,13:40,0.164,0.151,0.236,0.227,0.227,0.130,0.084,north-northwest,5.4,Yes
2022/02/10,13:50,0.164,0.152,0.236,0.227,0.227,0.131,0.084,north-northwest,5.7,Yes
2022/02/10,14:00,0.165,0.151,0.236,0.227,0.229,0.131,0.084,north-northwest,4.8,Yes
2022/02/10,14:10,0.164,0.152,0.236,0.228,0.229,0.132,0.086,north-northwest,4.4,Yes
2022/02/10,14:20,0.164,0.153,0.237,0.229,0.228,0.132,0.086,north-northwest,4.4,Yes
2022/02/10,14:30,0.166,0.153,0.237,0.228,0.229,0.133,0.086,north-northwest,4.7,Yes
2022/02/10,14:40,0.167,0.155,0.236,0.227,0.229,0.135,0.088,north-northwest,5.2,Yes
2022/02/10,14:50,0.166,0.155,0.237,0.228,0.230,0.135,0.088,north-northwest,4.7,Yes
2022/02/10,15:00,0.167,0.156,0.238,0.228,0.230,0.137,0.089,north-northwest,5.5,Yes
2022/02/10,15:10,0.168,0.156,0.237,0.228,0.229,0.136,0.090,north-northwest,6.7,Yes
2022/02/10,15:20,0.167,0.156,0.237,0.228,0.229,0.136,0.091,north-northwest,6.2,Yes
2022/02/10,15:30,0.168,0.155,0.236,0.227,0.230,0.136,0.089,north-northwest,6.1,Yes
2022/02/10,15:40,0.167,0.154,0.236,0.227,0.229,0.134,0.089,north-northwest,6.2,Yes
2022/02/10,15:50,0.166,0.153,0.235,0.226,0.228,0.135,0.088,north-northwest,6.2,Yes
2022/02/10,16:00,0.166,0.153,0.234,0.226,0.228,0.133,0.087,north-northwest,6.0,Yes
2022/02/10,16:10,0.166,0.154,0.234,0.223,0.228,0.134,0.088,north-northwest,5.8,Yes
2022/02/10,16:20,0.167,0.153,0.235,0.224,0.228,0.134,0.089,north,5.8,Yes
2022/02/10,16:30,0.167,0.154,0.234,0.225,0.229,0.135,0.090,north-northwest,5.8,Yes
2022/02/10,16:40,0.168,0.155,0.235,0.225,0.229,0.137,0.092,north-northwest,4.8,Yes
2022/02/10,16:50,0.167,0.155,0.237,0.226,0.229,0.138,0.091,north-northwest,3.8,Yes
2022/02/10,17:00,0.166,0.154,0.235,0.225,0.229,0.137,0.090,north-northeast,4.9,Yes
2022/02/10,17:10,0.164,0.153,0.233,0.224,0.228,0.135,0.088,north-northeast,3.7,Yes
2022/02/10,17:20,0.163,0.152,0.233,0.222,0.227,0.133,0.087,northeast,6.7,Yes
2022/02/10,17:30,0.162,0.150,0.232,0.221,0.226,0.132,0.086,north-northeast,6.9,Yes
2022/02/10,17:40,0.162,0.150,0.229,0.219,0.224,0.131,0.086,northeast,7.6,Yes
2022/02/10,17:50,0.162,0.150,0.229,0.219,0.223,0.131,0.086,north-northeast,6.2,Yes
2022/02/10,18:00,0.162,0.148,0.227,0.217,0.223,0.130,0.084,northeast,5.8,Yes
2022/02/10,18:10,0.160,0.147,0.226,0.216,0.222,0.130,0.084,northeast,5.9,Yes
2022/02/10,18:20,0.160,0.148,0.225,0.216,0.219,0.129,0.083,north-northeast,5.5,Yes
2022/02/10,18:30,0.159,0.147,0.225,0.215,0.220,0.128,0.083,northeast,7.6,Yes
2022/02/10,18:40,0.160,0.146,0.223,0.215,0.220,0.127,0.083,north-northeast,5.2,Yes
2022/02/10,18:50,0.160,0.146,0.224,0.214,0.221,0.127,0.082,north-northeast,8.2,Yes
2022/02/10,19:00,0.159,0.147,0.225,0.213,0.220,0.126,0.082,north,7.2,Yes
2022/02/10,19:10,0.159,0.147,0.224,0.214,0.218,0.126,0.082,north,6.4,Yes
2022/02/10,19:20,0.159,0.146,0.224,0.214,0.220,0.126,0.081,north,5.9,Yes
2022/02/10,19:30,0.159,0.146,0.224,0.214,0.219,0.127,0.081,north,4.4,Yes
2022/02/10,19:40,0.158,0.145,0.225,0.215,0.220,0.128,0.082,north,6.2,Yes
2022/02/10,19:50,0.159,0.146,0.226,0.215,0.221,0.128,0.083,north-northwest,6.1,Yes
2022/02/10,20:00,0.160,0.147,0.225,0.214,0.219,0.129,0.085,north,5.8,Yes
2022/02/10,20:10,0.160,0.147,0.226,0.216,0.221,0.129,0.085,north-northwest,6.3,Yes
2022/02/10,20:20,0.160,0.147,0.227,0.216,0.221,0.130,0.085,north-northwest,6.8,Yes
2022/02/10,20:30,0.161,0.148,0.226,0.217,0.222,0.130,0.086,north-northwest,6.2,Yes
2022/02/10,20:40,0.161,0.148,0.225,0.215,0.221,0.131,0.087,north-northwest,6.7,Yes
2022/02/10,20:50,0.161,0.148,0.226,0.215,0.221,0.130,0.086,north,7.5,Yes
2022/02/10,21:00,0.160,0.147,0.225,0.213,0.221,0.131,0.085,north,6.3,Yes
2022/02/10,21:10,0.159,0.147,0.223,0.213,0.220,0.129,0.084,north,7.6,Yes
2022/02/10,21:20,0.159,0.146,0.222,0.212,0.218,0.129,0.085,north,8.3,Yes
2022/02/10,21:30,0.159,0.147,0.221,0.212,0.219,0.129,0.085,north,8.4,Yes
2022/02/10,21:40,0.158,0.147,0.220,0.211,0.218,0.128,0.084,north-northeast,8.5,Yes
2022/02/10,21:50,0.159,0.147,0.219,0.212,0.218,0.127,0.084,north-northeast,8.0,Yes
2022/02/10,22:00,0.159,0.146,0.220,0.210,0.216,0.129,0.083,north-northeast,9.3,Yes
2022/02/10,22:10,0.159,0.147,0.218,0.209,0.216,0.126,0.083,northeast,6.4,Yes
2022/02/10,22:20,0.160,0.146,0.219,0.209,0.214,0.126,0.083,north-northeast,9.2,Yes
2022/02/10,22:30,0.159,0.146,0.218,0.208,0.215,0.126,0.082,northeast,8.3,Yes
2022/02/10,22:40,0.159,0.148,0.219,0.208,0.216,0.127,0.083,north,8.0,Yes
2022/02/10,22:50,0.159,0.147,0.219,0.209,0.215,0.126,0.083,north-northeast,9.6,Yes
2022/02/10,23:00,0.158,0.147,0.217,0.209,0.215,0.127,0.083,north,7.8,Yes
2022/02/10,23:10,0.158,0.146,0.219,0.207,0.214,0.126,0.083,north,6.4,Yes
2022/02/10,23:20,0.159,0.148,0.220,0.208,0.215,0.127,0.083,north-northwest,8.1,Yes
2022/02/10,23:30,0.160,0.148,0.219,0.207,0.216,0.128,0.085,north,6.6,Yes
2022/02/10,23:40,0.160,0.148,0.218,0.208,0.216,0.129,0.084,north,9.7,Yes
2022/02/10,23:50,0.160,0.149,0.219,0.209,0.216,0.129,0.084,north,8.6,Yes
